Location: Saint-Hippolyte
(43.6394°N, 4.7559°E)
Time: 15:26:13
(UTC+00:00)

Lacrosse 5 - Pass Details

Date: 24 October 2020
Orbit: 716 x 723 km, 57.0° (Epoch: 06 November)

Event Time Altitude Azimuth Distance (km) Brightness Sun altitude
Rises 19:11:44 0° 302° (WNW) 3,123 6.2 -27.5°
Reaches altitude 10° 19:14:52 10° 321° (NW) 2,203 4.9 -28.1°
Enters shadow 19:18:09 18° 2° (N) 1,728 3.9 -28.7°
